Location: Unspecified
(0.0000°N, 0.0000°E)
Time: 15:41:44
(UTC+00:00)

SR - All Passes

Search period start: 22 August 2014 00:00
Search period end: 01 September 2014 00:00
Orbit: 575 x 891 km, 66.7° (Epoch: 21 August)

Date Brightness Start Highest point End Pass type
(mag) Time Alt. Az. Time Alt. Az. Time Alt. Az.
22 Aug - 04:04:49 10° SSW 04:09:29 55° WNW 04:14:36 10° N visible
22 Aug - 14:51:29 10° NNE 14:55:44 24° ENE 14:59:43 10° ESE daylight
22 Aug - 16:33:46 10° WNW 16:37:37 21° WSW 16:41:16 10° SSW daylight
23 Aug - 03:16:43 10° S 03:21:22 56° ESE 03:26:28 10° NNE visible
23 Aug - 15:44:24 10° NNW 15:49:35 52° WSW 15:54:20 10° S daylight
24 Aug - 02:29:41 10° SSE 02:33:20 22° ESE 02:37:13 10° ENE visible
24 Aug - 04:11:33 10° WSW 04:15:14 21° WNW 04:19:09 10° NNW visible
24 Aug - 14:56:11 10° N 15:01:29 61° ENE 15:06:19 10° SSE daylight
25 Aug - 03:22:19 10° SW 03:27:00 53° WNW 03:32:08 10° N visible
25 Aug - 14:08:59 10° NNE 14:13:15 24° ENE 14:17:15 10° ESE daylight
25 Aug - 15:51:24 10° WNW 15:55:08 20° WSW 15:58:40 10° SSW daylight
26 Aug - 02:34:10 10° S 02:38:53 59° ESE 02:44:02 10° NNE visible
26 Aug - 15:01:58 10° NW 15:07:06 50° WSW 15:11:47 10° S daylight
27 Aug - 01:47:05 10° SSE 01:50:50 23° ESE 01:54:50 10° ENE night (unlit)
27 Aug - 03:29:06 10° WSW 03:32:45 21° WNW 03:36:38 10° NNW visible
27 Aug - 14:13:43 10° N 14:18:59 63° ENE 14:23:48 10° SSE daylight
28 Aug - 02:39:48 10° SW 02:44:31 51° WNW 02:49:40 10° N night (unlit)
28 Aug - 13:26:28 10° NNE 13:30:46 25° ENE 13:34:47 10° ESE daylight
28 Aug - 15:09:02 10° WNW 15:12:38 19° WSW 15:16:03 10° SSW daylight
29 Aug - 01:51:38 10° S 01:56:23 61° ESE 02:01:35 10° NNE night (unlit)
29 Aug - 14:19:32 10° NW 14:24:36 48° WSW 14:29:14 10° S daylight
30 Aug - 01:04:29 10° SSE 01:08:20 24° ESE 01:12:27 10° NE night (unlit)
30 Aug - 02:46:38 10° WSW 02:50:16 20° WNW 02:54:06 10° NNW night (unlit)
30 Aug - 13:31:14 10° NNW 13:36:30 65° ENE 13:41:17 10° SSE daylight
31 Aug - 01:57:18 10° SW 02:02:01 50° WNW 02:07:11 10° N night (unlit)
31 Aug - 12:43:58 10° NNE 12:48:17 25° ENE 12:52:18 10° ESE daylight
31 Aug - 14:26:40 10° WNW 14:30:08 18° WSW 14:33:25 10° SSW daylight
